Location: ASU Dark Sky Observatory
(36.2504°N, 81.4125°W)
Time: 01:22:28
(UTC-04:00)

Amateur Radio Satellites - All Passes

Search period start: 21 October 2014 00:52
Search period end: 22 October 2014 00:52
Location: ASU Dark Sky Observatory, 36.2504°N, 81.4125°W

Satellite Date Start Highest point End Downlink Frequencies (MHz)
Time Altitude Azimuth
KITSAT 1 21 Oct 01:18:48 01:22:47 15° 260° (W) 01:26:46 435.175 FM
MaSat-1 21 Oct 01:42:42 01:46:54 47° 296° (WNW) 01:50:45 437.345 MHz
Oscar 19 21 Oct 01:46:13 01:48:42 14° 92° (E) 01:51:10 437.125 CW, 437.150 USB
UOSAT-12 21 Oct 02:03:00 02:07:33 50° 245° (WSW) 02:12:00 437.025 FM, 437.400 FM
RS-15 21 Oct 02:16:11 02:24:35 25° 325° (NW) 02:33:04 29.354 - 29.394 USB, Beacon 29.352 USB
JAS-1B 21 Oct 02:28:54 02:35:01 37° 100° (E) 02:42:09 435.800 - 435.900 CW/SSB
Oscar 16 21 Oct 02:29:17 02:34:06 40° 99° (E) 02:38:51 437.025 USB, Beacon 2401.1428
Uribyol 2 21 Oct 02:41:40 02:45:35 21° 95° (E) 02:49:27 436.500 FM
ITAMSAT 1 21 Oct 02:46:28 02:50:29 22° 95° (E) 02:54:29 435.822 SSB
AO-Echo 21 Oct 02:59:19 03:04:19 41° 98° (E) 03:09:18 ?
Oscar 19 21 Oct 03:23:21 03:28:23 60° 286° (WNW) 03:33:24 437.125 CW, 437.150 USB
AO-27 21 Oct 03:30:01 03:35:13 62° 102° (ESE) 03:40:22 436.795 MHz FM
Sapphire 21 Oct 04:02:40 04:05:05 13° 103° (ESE) 04:07:30 437.095 MHz 1200 baud AX-25 AFSK
Oscar 16 21 Oct 04:09:19 04:13:09 22° 294° (WNW) 04:16:58 437.025 USB, Beacon 2401.1428
Gurwin Techsat 1B 21 Oct 04:19:23 04:24:44 86° 284° (WNW) 04:30:02 435.225 FM
JAS-1B 21 Oct 04:19:43 04:25:33 36° 291° (WNW) 04:32:19 435.800 - 435.900 CW/SSB
Uribyol 2 21 Oct 04:20:18 04:25:09 40° 289° (WNW) 04:29:58 436.500 FM
PCSat 21 Oct 04:23:36 04:27:51 24° 107° (ESE) 04:32:07 145.825 MHz
ITAMSAT 1 21 Oct 04:25:14 04:30:03 39° 290° (WNW) 04:34:51 435.822 SSB
TMSAT-1 21 Oct 04:33:28 04:38:48 86° 284° (WNW) 04:44:06 436.925 FM
RS-15 21 Oct 04:38:29 04:42:59 13° 2° (N) 04:47:31 29.354 - 29.394 USB, Beacon 29.352 USB
AO-Echo 21 Oct 04:38:43 04:42:46 23° 293° (WNW) 04:46:50 ?
Uosat F 21 Oct 04:42:11 04:44:52 14° 92° (E) 04:47:32 435.120 FM
OPAL 21 Oct 05:09:53 05:14:40 39° 69° (ENE) 05:19:25 ?
AO-27 21 Oct 05:11:17 05:14:09 15° 297° (WNW) 05:17:01 436.795 MHz FM
JAS-2 21 Oct 05:23:57 05:28:16 16° 89° (E) 05:32:34 435.800 - 435.900 CW/SSB, 435.910 FM
AO-7 21 Oct 05:33:58 05:42:13 63° 104° (ESE) 05:50:26 29.400 - 29.500 MHz
Sapphire 21 Oct 05:42:27 05:47:49 70° 298° (WNW) 05:53:14 437.095 MHz 1200 baud AX-25 AFSK
PCSat 21 Oct 06:05:55 06:10:59 40° 302° (WNW) 06:16:06 145.825 MHz
Uosat F 21 Oct 06:19:01 06:23:57 56° 287° (WNW) 06:28:52 435.120 FM
STRAND 1 21 Oct 06:47:45 06:52:17 33° 69° (ENE) 06:56:49 ?
OPAL 21 Oct 06:49:40 06:53:37 22° 263° (W) 06:57:33 ?
RS-15 21 Oct 06:52:01 07:01:06 28° 38° (NE) 07:10:24 29.354 - 29.394 USB, Beacon 29.352 USB
Hamsat 21 Oct 07:02:08 07:06:16 58° 100° (E) 07:10:25 145.90 MHz
JAS-2 21 Oct 07:06:12 07:13:59 89° 104° (ESE) 07:21:50 435.800 - 435.900 CW/SSB, 435.910 FM
AO-7 21 Oct 07:27:44 07:34:23 28° 301° (WNW) 07:41:04 29.400 - 29.500 MHz
Sapphire 21 Oct 07:31:15 07:32:14 10° 317° (NW) 07:33:13 437.095 MHz 1200 baud AX-25 AFSK
SO-67 21 Oct 08:00:21 08:03:26 29° 97° (E) 08:06:29 435.3500 MHz FM
Saudisat 1A 21 Oct 08:03:46 08:06:26 16° 109° (ESE) 08:09:07 436.775 MHz
STRAND 1 21 Oct 08:27:14 08:31:26 26° 264° (W) 08:35:41 ?
Hamsat 21 Oct 08:41:01 08:41:41 10° 295° (WNW) 08:42:22 145.90 MHz
JAS-2 21 Oct 08:53:09 08:58:01 19° 300° (WNW) 09:02:58 435.800 - 435.900 CW/SSB, 435.910 FM
HO-68 21 Oct 08:53:44 08:56:49 13° 90° (E) 08:59:53 435.675 MHz FM
RS-15 21 Oct 09:03:47 09:15:03 90° 62° (ENE) 09:26:50 29.354 - 29.394 USB, Beacon 29.352 USB
PANSAT 21 Oct 09:27:50 09:29:59 15° 163° (SSE) 09:32:09 not established
SO-67 21 Oct 09:34:36 09:36:06 12° 291° (WNW) 09:37:36 435.3500 MHz FM
Saudisat 1A 21 Oct 09:41:26 09:45:37 43° 304° (NW) 09:49:50 436.775 MHz
UKube-1 21 Oct 09:55:47 09:57:07 11° 92° (E) 09:58:27 145.840 MHz, 145.915 MHz
HO-68 21 Oct 10:38:04 10:45:19 89° 106° (ESE) 10:52:30 435.675 MHz FM
Oscar 11 21 Oct 10:38:42 10:42:37 34° 98° (E) 10:46:31 145.825 FM, Beacon 2401.500 USB
PANSAT 21 Oct 11:06:27 11:09:35 24° 176° (S) 11:12:44 not established
ZACube-1 21 Oct 11:16:39 11:20:38 37° 98° (E) 11:24:30 437.345 MHz
RS-15 21 Oct 11:18:38 11:25:58 20° 259° (W) 11:33:31 29.354 - 29.394 USB, Beacon 29.352 USB
UKube-1 21 Oct 11:29:19 11:33:35 54° 286° (WNW) 11:37:50 145.840 MHz, 145.915 MHz
MaSat-1 21 Oct 11:32:34 11:34:50 28° 252° (WSW) 11:36:58 437.345 MHz
KITSAT 1 21 Oct 11:54:12 11:58:51 17° 101° (E) 12:03:29 435.175 FM
FUNcube-1 21 Oct 12:02:13 12:06:27 60° 285° (WNW) 12:10:33 145.950 - 145.970 MHz USB
Oscar 11 21 Oct 12:15:37 12:18:32 18° 292° (WNW) 12:21:26 145.825 FM, Beacon 2401.500 USB
HO-68 21 Oct 12:27:56 12:32:02 16° 303° (WNW) 12:36:07 435.675 MHz FM
PANSAT 21 Oct 12:46:16 12:49:16 22° 189° (S) 12:52:15 not established
ZACube-1 21 Oct 12:54:04 12:56:41 16° 293° (WNW) 12:59:16 437.345 MHz
Oscar 19 21 Oct 13:00:36 13:03:47 17° 64° (ENE) 13:06:57 437.125 CW, 437.150 USB
JAS-1B 21 Oct 13:14:23 13:18:45 21° 65° (ENE) 13:22:53 435.800 - 435.900 CW/SSB
PCSat 21 Oct 13:14:42 13:17:19 13° 46° (NE) 13:19:55 145.825 MHz
Oscar 16 21 Oct 13:43:37 13:48:31 45° 72° (ENE) 13:53:25 437.025 USB, Beacon 2401.1428
KITSAT 1 21 Oct 13:45:05 13:53:10 86° 297° (WNW) 14:01:18 435.175 FM
Uribyol 2 21 Oct 13:57:02 14:01:15 26° 67° (ENE) 14:05:29 436.500 FM
ISS 21 Oct 14:00:09 14:03:15 38° 133° (SE) 14:06:23 145.800 FM
Gurwin Techsat 1B 21 Oct 14:01:26 14:03:51 13° 62° (ENE) 14:06:17 435.225 FM
ITAMSAT 1 21 Oct 14:01:59 14:06:16 27° 68° (ENE) 14:10:34 435.822 SSB
AO-Echo 21 Oct 14:09:57 14:14:22 38° 71° (ENE) 14:18:57 ?
TMSAT-1 21 Oct 14:15:15 14:17:37 13° 62° (ENE) 14:19:59 436.925 FM
SO-50 21 Oct 14:27:10 14:31:37 89° 120° (ESE) 14:36:14 436.795 FM
PANSAT 21 Oct 14:28:03 14:28:48 10° 201° (SSW) 14:29:32 not established
Sapphire 21 Oct 14:33:05 14:38:25 53° 60° (ENE) 14:43:41 437.095 MHz 1200 baud AX-25 AFSK
Oscar 19 21 Oct 14:37:36 14:42:38 54° 260° (W) 14:47:42 437.125 CW, 437.150 USB
AO-7 21 Oct 14:43:27 14:46:46 13° 50° (NE) 14:50:04 29.400 - 29.500 MHz
AO-27 21 Oct 14:45:30 14:50:40 73° 75° (ENE) 14:55:53 436.795 MHz FM
PCSat 21 Oct 14:56:01 15:01:28 89° 242° (WSW) 15:06:52 145.825 MHz
JAS-1B 21 Oct 15:03:07 15:09:10 47° 259° (W) 15:14:41 435.800 - 435.900 CW/SSB
Oscar 16 21 Oct 15:24:28 15:28:02 19° 266° (W) 15:31:37 437.025 USB, Beacon 2401.1428
Uribyol 2 21 Oct 15:35:48 15:40:31 35° 262° (W) 15:45:16 436.500 FM
ISS 21 Oct 15:37:23 15:40:03 22° 329° (NNW) 15:42:43 145.800 FM
Gurwin Techsat 1B 21 Oct 15:37:52 15:43:09 72° 258° (WSW) 15:48:28 435.225 FM
Oscar 10/S400 21 Oct 15:38:25 15:56:40 56° 160° (SSE) 16:30:01 145.825 - 145.975 CW/USB, Beacon 145.810 USB
ITAMSAT 1 21 Oct 15:40:56 15:45:35 33° 263° (W) 15:50:16 435.822 SSB
KITSAT 1 21 Oct 15:44:02 15:49:44 20° 318° (NW) 15:55:28 435.175 FM
AO-Echo 21 Oct 15:49:46 15:53:16 20° 266° (W) 15:56:51 ?
TMSAT-1 21 Oct 15:51:35 15:56:52 73° 258° (WSW) 16:02:11 436.925 FM
Uosat F 21 Oct 15:53:11 15:56:13 16° 64° (ENE) 15:59:15 435.120 FM
UOSAT-12 21 Oct 16:11:09 16:15:46 89° 299° (WNW) 16:20:30 437.025 FM, 437.400 FM
SO-50 21 Oct 16:11:22 16:12:52 11° 318° (NW) 16:14:23 436.795 FM
Sapphire 21 Oct 16:17:46 16:21:21 18° 255° (WSW) 16:24:56 437.095 MHz 1200 baud AX-25 AFSK
AO-27 21 Oct 16:29:07 16:30:39 11° 269° (W) 16:32:12 436.795 MHz FM
AO-7 21 Oct 16:29:49 16:37:59 67° 69° (ENE) 16:46:10 29.400 - 29.500 MHz
JAS-2 21 Oct 17:16:56 17:21:41 27° 64° (ENE) 17:26:55 435.800 - 435.900 CW/SSB, 435.910 FM
OPAL 21 Oct 17:24:50 17:26:29 12° 93° (E) 17:28:07 ?
Uosat F 21 Oct 17:29:38 17:34:31 53° 259° (W) 17:39:27 435.120 FM
Hamsat 21 Oct 17:53:07 17:56:47 29° 72° (ENE) 18:00:26 145.90 MHz
UOSAT-12 21 Oct 17:54:52 17:56:36 12° 318° (NW) 17:58:21 437.025 FM, 437.400 FM
Saudisat 1A 21 Oct 18:10:15 18:14:40 67° 59° (ENE) 18:19:02 436.775 MHz
AO-7 21 Oct 18:24:59 18:31:15 24° 265° (W) 18:37:33 29.400 - 29.500 MHz
OPAL 21 Oct 19:00:51 19:05:47 66° 288° (WNW) 19:10:39 ?
JAS-2 21 Oct 19:01:14 19:06:28 39° 264° (W) 19:12:21 435.800 - 435.900 CW/SSB, 435.910 FM
STRAND 1 21 Oct 19:02:34 19:04:59 13° 92° (E) 19:07:24 ?
Hamsat 21 Oct 19:29:41 19:32:44 19° 266° (W) 19:35:46 145.90 MHz
Saudisat 1A 21 Oct 19:53:09 19:53:37 10° 253° (WSW) 19:54:05 436.775 MHz
SO-67 21 Oct 20:02:42 20:06:03 55° 260° (W) 20:09:27 435.3500 MHz FM
ISS 21 Oct 20:31:17 20:33:49 20° 30° (NNE) 20:36:21 145.800 FM
STRAND 1 21 Oct 20:39:27 20:44:33 62° 286° (WNW) 20:49:36 ?
HO-68 21 Oct 21:03:30 21:10:21 52° 69° (ENE) 21:17:14 435.675 MHz FM
RS-15 21 Oct 21:18:47 21:23:54 14° 98° (E) 21:28:57 29.354 - 29.394 USB, Beacon 29.352 USB
Oscar 11 21 Oct 21:31:51 21:35:02 20° 69° (ENE) 21:38:13 145.825 FM, Beacon 2401.500 USB
KITSAT 1 21 Oct 21:41:47 21:48:46 31° 49° (NE) 21:55:41 435.175 FM
ISS 21 Oct 22:07:28 22:10:40 45° 226° (SW) 22:13:52 145.800 FM
ZACube-1 21 Oct 22:10:38 22:14:20 24° 70° (ENE) 22:18:01 437.345 MHz
UKube-1 21 Oct 22:21:47 22:26:08 89° 256° (WSW) 22:30:31 145.840 MHz, 145.915 MHz
HO-68 21 Oct 22:52:26 22:58:15 27° 264° (W) 23:04:08 435.675 MHz FM
FUNcube-1 21 Oct 22:55:11 22:59:47 76° 76° (ENE) 23:04:21 145.950 - 145.970 MHz USB
SO-50 21 Oct 23:01:14 23:05:48 40° 55° (NE) 23:10:24 436.795 FM
Oscar 11 21 Oct 23:07:10 23:10:59 30° 263° (W) 23:14:49 145.825 FM, Beacon 2401.500 USB
RS-15 21 Oct 23:23:21 23:34:22 79° 116° (ESE) 23:45:16 29.354 - 29.394 USB, Beacon 29.352 USB
KITSAT 1 21 Oct 23:36:41 23:44:34 60° 248° (WSW) 23:52:25 435.175 FM
ZACube-1 21 Oct 23:46:35 23:50:34 29° 264° (W) 23:54:32 437.345 MHz
SO-50 22 Oct 00:42:25 00:46:06 22° 250° (WSW) 00:49:48 436.795 FM
UOSAT-12 22 Oct 00:43:30 00:47:54 38° 54° (NE) 00:52:13 437.025 FM, 437.400 FM
